South Beach, OR

9:13 PM PST on February 06, 2016 (GMT -0800)
Newport Municipal

Weather History for KONP - February, 2012

Change the Weather History Date:

Wednesday, February 22, 2012

  Actual Average Record
Temperature  
Mean Temperature 47 °F -  
Max Temperature 50 °F 51 °F 68 °F (2005)
Min Temperature 44 °F 40 °F 32 °F (2014)
Degree Days  
Heating Degree Days 18    
Moisture  
Dew Point 45 °F    
Average Humidity 90    
Maximum Humidity 100    
Minimum Humidity 76    
Precipitation  
Precipitation 0.49 in - - ()
Sea Level Pressure  
Sea Level Pressure 30.39 in    
Wind  
Wind Speed 15 mph (WSW)    
Max Wind Speed 22 mph    
Max Gust Speed 30 mph    
Visibility 2 miles    
Events Rain    
Averages and records for this station are not official NWS values.
T = Trace of Precipitation, MM = Missing Value Source: NWS Daily Summary

Daily Weather History Graph

Daily Weather History Graph

Search for Another Location

Airport or City:

Trip Planner

Search our weather history database for the weather conditions in past years. The results will help you decide how hot, cold, wet, or windy it might be!

Date:

Astronomy

Feb. 22, 2012 Rise Set
Actual Time 7:06 AM PST 5:54 PM PST
Civil Twilight 6:36 AM PST 6:23 PM PST
Nautical Twilight 6:02 AM PST 6:57 PM PST
Astronomical Twilight 5:29 AM PST 7:31 PM PST
Moon 7:02 AM PST (2/22) 7:12 PM PST (2/22)
Length of Visible Light 11h 47m
Length of Day
10h 48m
New Moon, 1% of the Moon is Illuminated
Feb 22
New Moon
Feb 29
First Quarter
Mar 8
Full
Mar 14
Last Quarter
Mar 22
New

Hourly Weather History & Observations

Time (PST) Temp. Windchill Dew Point Humidity Pressure Visibility Wind Dir Wind Speed Gust Speed Precip Events Conditions
12:15 AM 46.4 °F 39.5 °F 46.4 °F 100% 30.37 in 1.0 mi SSW 17.3 mph 23.0 mph N/A   Drizzle
12:35 AM 46.4 °F 39.8 °F 46.4 °F 100% 30.37 in 0.8 mi SSW 16.1 mph - N/A   Heavy Drizzle
12:55 AM 46.4 °F 39.5 °F 46.4 °F 100% 30.37 in 1.0 mi SSW 17.3 mph 24.2 mph N/A   Drizzle
1:15 AM 46.4 °F 39.5 °F 46.4 °F 100% 30.37 in 1.0 mi SSW 17.3 mph 24.2 mph N/A Rain Light Rain
1:35 AM 46.4 °F 39.5 °F 46.4 °F 100% 30.37 in 1.2 mi SSW 17.3 mph - 0.01 in   Overcast
1:55 AM 46.4 °F 39.5 °F 46.4 °F 100% 30.37 in 1.2 mi SSW 17.3 mph 23.0 mph 0.01 in   Drizzle
2:15 AM 46.4 °F 39.5 °F 46.4 °F 100% 30.36 in 1.0 mi SSW 17.3 mph 25.3 mph N/A   Drizzle
2:35 AM 46.4 °F 39.2 °F 46.4 °F 100% 30.35 in 1.0 mi SSW 18.4 mph 26.5 mph N/A Rain Light Rain
3:15 AM 46.4 °F 39.2 °F 46.4 °F 100% 30.34 in 1.2 mi SSW 18.4 mph 25.3 mph 0.01 in Rain Light Rain
3:35 AM 48.2 °F - 46.4 °F 93% 30.34 in 1.5 mi SSW 21.9 mph 25.3 mph 0.01 in   Light Drizzle
3:55 AM 48.2 °F - 46.4 °F 93% 30.34 in 1.2 mi SSW 19.6 mph 29.9 mph 0.01 in   Drizzle
4:15 AM 48.2 °F - 46.4 °F 93% 30.33 in 1.2 mi SSW 19.6 mph 25.3 mph N/A Rain Light Rain
4:35 AM 48.2 °F - 46.4 °F 93% 30.32 in 1.0 mi SSW 19.6 mph 28.8 mph 0.01 in Rain Rain
4:55 AM 48.2 °F - 46.4 °F 93% 30.32 in 1.0 mi SSW 19.6 mph 28.8 mph 0.01 in   Drizzle
5:15 AM 48.2 °F - 48.2 °F 100% 30.32 in 1.2 mi SSW 18.4 mph 26.5 mph 0.01 in Rain Rain
5:35 AM 48.2 °F - 46.4 °F 93% 30.33 in 1.5 mi SSW 17.3 mph 24.2 mph 0.08 in Rain Rain
5:55 AM 48.2 °F - 46.4 °F 93% 30.32 in 1.2 mi SSW 19.6 mph - 0.12 in Rain Rain
6:15 AM 48.2 °F - 46.4 °F 93% 30.33 in 1.5 mi SW 18.4 mph - 0.06 in Rain Rain
6:35 AM 48.2 °F - 46.4 °F 93% 30.34 in 1.8 mi SW 16.1 mph 24.2 mph 0.12 in Rain Rain
6:55 AM 48.2 °F - 46.4 °F 93% 30.33 in 1.8 mi SW 13.8 mph 24.2 mph 0.18 in Rain Rain
7:15 AM 48.2 °F - 46.4 °F 93% 30.32 in 2.0 mi SSW 19.6 mph - 0.03 in Rain Rain
7:35 AM 48.2 °F - 46.4 °F 93% 30.33 in 2.0 mi SW 16.1 mph 25.3 mph 0.05 in   Heavy Drizzle
7:55 AM 48.2 °F - 46.4 °F 93% 30.34 in 0.8 mi SW 16.1 mph 20.7 mph 0.08 in Rain Rain
8:15 AM 48.2 °F - 46.4 °F 93% 30.35 in 0.8 mi SW 12.7 mph - 0.02 in Rain Rain
8:35 AM 48.2 °F - 46.4 °F 93% 30.35 in 0.5 mi SW 12.7 mph 19.6 mph 0.05 in Rain Light Rain
8:55 AM 48.2 °F - 46.4 °F 93% 30.36 in 0.5 mi SW 11.5 mph 17.3 mph 0.06 in   Heavy Drizzle
9:15 AM 48.2 °F - 46.4 °F 93% 30.37 in 0.5 mi WSW 9.2 mph 16.1 mph 0.01 in   Heavy Drizzle
9:35 AM 48.2 °F - 46.4 °F 93% 30.37 in 0.8 mi West 8.1 mph - 0.01 in Rain Light Rain
9:55 AM 48.2 °F - 46.4 °F 93% 30.38 in 2.5 mi West 6.9 mph - 0.02 in   Overcast
10:15 AM 48.2 °F - 46.4 °F 93% 30.38 in 2.0 mi West 5.8 mph - N/A   Overcast
10:35 AM 48.2 °F - 46.4 °F 93% 30.39 in 2.0 mi West 8.1 mph - N/A   Overcast
10:55 AM 48.2 °F - 48.2 °F 100% 30.39 in 2.5 mi WSW 8.1 mph - N/A   Overcast
11:15 AM 50.0 °F - 48.2 °F 94% 30.40 in 2.5 mi WSW 8.1 mph - N/A   Mostly Cloudy
11:35 AM 50.0 °F - 50.0 °F 100% 30.41 in - West 8.1 mph - N/A   Unknown
11:55 AM 50.0 °F - 50.0 °F 100% 30.42 in - West 9.2 mph - N/A   Unknown
12:15 PM 50.0 °F - 48.2 °F 94% 30.42 in 4.0 mi WNW 6.9 mph - N/A   Mostly Cloudy
12:35 PM 50.0 °F - 46.4 °F 87% 30.42 in - NW 9.2 mph - N/A   Overcast
12:55 PM 50.0 °F - 44.6 °F 82% 30.42 in - NW 9.2 mph - N/A   Overcast
1:15 PM 50.0 °F - 44.6 °F 82% 30.42 in - NW 10.4 mph - N/A   Overcast
1:35 PM 50.0 °F - 44.6 °F 82% 30.43 in - WNW 9.2 mph - N/A   Mostly Cloudy
1:55 PM 50.0 °F - 44.6 °F 82% 30.43 in - NW 11.5 mph - N/A   Overcast
2:15 PM 48.2 °F - 42.8 °F 82% 30.43 in - NW 11.5 mph 17.3 mph N/A   Unknown
2:35 PM 48.2 °F - 42.8 °F 82% 30.43 in - NW 10.4 mph - N/A   Unknown
2:55 PM 48.2 °F - 42.8 °F 82% 30.43 in - NW 10.4 mph - N/A   Unknown
3:15 PM 46.4 °F 41.1 °F 41.0 °F 81% 30.43 in - NW 11.5 mph - N/A   Unknown
3:35 PM 46.4 °F 41.1 °F 41.0 °F 81% 30.44 in - NW 11.5 mph - N/A   Overcast
3:55 PM 48.2 °F - 41.0 °F 76% 30.45 in - NW 9.2 mph 16.1 mph N/A   Overcast
4:15 PM 48.2 °F - 41.0 °F 76% 30.44 in - WNW 10.4 mph 16.1 mph N/A   Unknown
4:35 PM 48.2 °F - 41.0 °F 76% 30.44 in - WNW 9.2 mph - N/A   Overcast
4:55 PM 46.4 °F 41.1 °F 39.2 °F 76% 30.44 in 4.0 mi NW 11.5 mph 17.3 mph N/A   Scattered Clouds
5:15 PM 46.4 °F 41.5 °F 39.2 °F 76% 30.44 in 5.0 mi NW 10.4 mph - N/A   Haze
5:35 PM 46.4 °F 41.5 °F 39.2 °F 76% 30.45 in 5.0 mi NW 10.4 mph - N/A   Haze
5:55 PM 44.6 °F 38.8 °F 39.2 °F 81% 30.45 in 5.0 mi NW 11.5 mph - N/A   Haze
6:15 PM 44.6 °F 38.8 °F 37.4 °F 76% 30.46 in 5.0 mi NW 11.5 mph 16.1 mph N/A   Haze
6:35 PM 44.6 °F 39.7 °F 37.4 °F 76% 30.47 in 7.0 mi NW 9.2 mph - N/A   Mostly Cloudy
6:55 PM 44.6 °F 38.8 °F 37.4 °F 76% 30.47 in 7.0 mi WNW 11.5 mph - N/A   Overcast
7:15 PM 44.6 °F 38.8 °F 37.4 °F 76% 30.47 in 7.0 mi NW 11.5 mph 17.3 mph N/A   Overcast
7:35 PM 44.6 °F 38.4 °F 41.0 °F 87% 30.47 in 7.0 mi NW 12.7 mph 18.4 mph N/A Rain Light Rain
7:55 PM 44.6 °F 39.2 °F 39.2 °F 81% 30.47 in 7.0 mi WNW 10.4 mph - N/A   Overcast
8:15 PM 44.6 °F 38.4 °F 37.4 °F 76% 30.47 in 7.0 mi NW 12.7 mph - N/A   Overcast
8:35 PM 44.6 °F 39.2 °F 37.4 °F 76% 30.48 in 10.0 mi NW 10.4 mph - N/A   Mostly Cloudy
8:55 PM 44.6 °F 39.7 °F 37.4 °F 76% 30.48 in 7.0 mi NW 9.2 mph - N/A   Mostly Cloudy
9:15 PM 44.6 °F 41.4 °F 37.4 °F 76% 30.48 in 7.0 mi NNW 5.8 mph - N/A   Mostly Cloudy
9:35 PM 44.6 °F 39.2 °F 37.4 °F 76% 30.48 in 7.0 mi NW 10.4 mph 16.1 mph N/A   Overcast
9:55 PM 44.6 °F 40.7 °F 37.4 °F 76% 30.49 in 5.0 mi NNW 6.9 mph - N/A   Haze
10:15 PM 44.6 °F 41.4 °F 39.2 °F 81% 30.49 in 7.0 mi North 5.8 mph 10.4 mph N/A   Overcast
10:35 PM 42.8 °F 38.6 °F 37.4 °F 81% 30.49 in 7.0 mi North 6.9 mph - N/A   Mostly Cloudy
10:55 PM 44.6 °F 40.7 °F 37.4 °F 76% 30.49 in 7.0 mi North 6.9 mph - N/A   Overcast
11:15 PM 44.6 °F - 37.4 °F 76% 30.49 in 7.0 mi Calm Calm - N/A   Drizzle
11:35 PM 42.8 °F 41.1 °F 37.4 °F 81% 30.49 in 10.0 mi NNE 3.5 mph - N/A   Overcast
11:55 PM 42.8 °F 40.1 °F 39.2 °F 87% 30.49 in 7.0 mi NE 4.6 mph - N/A   Overcast